User: anonymous   Login
Location: Pine Mountain Observatory
(43.7910°N, 120.9377°W)
Time: 22:51:01
(UTC-07:00)
Language:

APEX - Orbit

View from above orbital plane
View from above orbital plane
View from above satellite
View from above satellite

Ground track
Ground track

The orbit data is extracted from the following two-line orbital elements,

1 23191U 94046A   15245.48402846 +.00008906 +00000-0 +33704-3 0  9995
2 23191 069.9281 279.0297 0665549 066.1790 036.1115 14.22193029022951
Epoch (UTC): 02 September 2015 11:37:00
Eccentricity: 0.0665549
inclination: 69.9281°
perigee height: 339 km
apogee height: 1297 km
right ascension of ascending node: 279.0297°
argument of perigee: 66.1790°
revolutions per day: 14.22193029
mean anomaly at epoch: 36.1115°
orbit number at epoch: 2295

The dashed part of the orbit path shows where the satellite is in the earth's shadow,  

DLR